Torna al catalogo

DMSP 5D-3 F17

USA 191

AttivoMeteoSSO
NORAD 29522·PAYLOAD·🇺🇸 United States

Lanciato Nov 4, 2006 da Vandenberg Space Force Base

Loading…

Prossimi Passaggi (prossime 24 ore)

TLE

AggiornatoSource: Space-Track

Epoca: Sep 14, 2026, 21:38 UTC

1 29522U 06050A   26257.90200218  .00000097  00000-0  72588-4 0  9995
2 29522  98.7424 262.6545 0010537 154.0158 206.1546 14.15007729 25115

Traccia DMSP 5D-3 F17 in tempo reale con AllMySat

Download on the App Store